Location: Newark
(13.8117°N, 3.6025°W)
Time: 16:13:09
(UTC+00:00)

Courier 1B - Pass Details

Date: 22 August 2019
Orbit: 962 x 1209 km, 28.3° (Epoch: 16 September)

Event Time Altitude Azimuth Distance (km) Brightness Sun altitude
Rises 19:07:30 0° 290° (WNW) 3,737 12.9 -9.1°
Reaches altitude 10° 19:10:53 10° 305° (NW) 2,750 11.2 -9.9°
Maximum altitude 19:15:55 22° 355° (N) 1,960 9.3 -11.1°
Drops below altitude 10° 19:20:51 10° 45° (NE) 2,687 9.5 -12.2°
Enters shadow 19:23:17 - 57° (ENE) 3,378 9.9 -12.8°
